Weather History for Lincoln, NE

Change the Weather History Date:

Friday, August 15, 2014

  Actual Average Record
Temperature  
Mean Temperature 73 °F 76 °F  
Max Temperature 76 °F 87 °F 106 °F (1937)
Min Temperature 69 °F 64 °F 48 °F (1929)
Degree Days  
Heating Degree Days 0 0  
Month to date heating degree days 0 0  
Since 1 June heating degree days 4 17  
Since 1 July heating degree days 2 1  
Cooling Degree Days 8 11  
Month to date cooling degree days 145 174  
Year to date cooling degree days 904 885  
Since 1 June cooling degree days 744 806  
Growing Degree Days 22 (Base 50)    
Moisture  
Dew Point 66 °F    
Average Humidity 77    
Maximum Humidity 90    
Minimum Humidity 64    
Precipitation  
Precipitation 0.23 in 0.12 in 1.72 in (1977)
Month to date precipitation 1.13 1.63  
Year to date precipitation 17.29 19.72  
Snow  
Snow 0.00 in 0.00 in - ()
Month to date snowfall 0.0 0.0  
Since 1 July snowfall 0.0 0.0  
Snow Depth 0.00 in    
Sea Level Pressure  
Sea Level Pressure 29.88 in    
Wind  
Wind Speed 9 mph (SE)    
Max Wind Speed 17 mph    
Max Gust Speed 23 mph    
Visibility 8 miles    
Events Rain    
T = Trace of Precipitation, MM = Missing Value Source: NWS Daily Summary

Daily Weather History Graph

Daily Weather History Graph

Search for Another Location

Airport:

Trip Planner

Search our weather history database for the weather conditions in past years. The results will help you decide how hot, cold, wet, or windy it might be!

Date:

Astronomy

Aug. 15, 2014 Rise Set
Actual Time 6:37 AM CDT 8:25 PM CDT
Civil Twilight 6:07 AM CDT 8:54 PM CDT
Nautical Twilight 5:31 AM CDT 9:30 PM CDT
Astronomical Twilight 4:53 AM CDT 10:08 PM CDT
Moon 11:25 PM CDT (8/15) 12:23 PM CDT (8/15)
Length of Visible Light 14h 46m
Length of Day
13h 48m
Waning Gibbous, 69% of the Moon is Illuminated
Aug 15
Waning Gibbous
Aug 17
Last Quarter
Aug 25
New
Sep 2
First Quarter
Sep 8
Full

Hourly Weather History & Observations

Time (CDT) Temp. Dew Point Humidity Pressure Visibility Wind Dir Wind Speed Gust Speed Precip Events Conditions
12:54 AM 73.0 °F 61.0 °F 66% 29.92 in 10.0 mi SSE 12.7 mph - N/A   Clear
1:54 AM 72.0 °F 61.0 °F 68% 29.90 in 10.0 mi SSE 13.8 mph - N/A   Clear
2:54 AM 70.0 °F 61.0 °F 73% 29.89 in 10.0 mi SSE 10.4 mph - N/A   Clear
3:54 AM 70.0 °F 61.0 °F 73% 29.89 in 10.0 mi South 12.7 mph - N/A   Clear
4:54 AM 70.0 °F 61.0 °F 73% 29.88 in 10.0 mi SSE 10.4 mph - N/A   Scattered Clouds
5:54 AM 70.0 °F 62.1 °F 76% 29.88 in 10.0 mi SSE 11.5 mph - N/A   Clear
6:54 AM 70.0 °F 63.0 °F 78% 29.88 in 10.0 mi SSE 9.2 mph - N/A   Clear
7:54 AM 71.1 °F 63.0 °F 75% 29.87 in 9.0 mi South 10.4 mph - N/A   Partly Cloudy
8:54 AM 73.0 °F 64.0 °F 73% 29.88 in 9.0 mi SE 8.1 mph - N/A   Clear
9:54 AM 73.9 °F 64.9 °F 73% 29.88 in 9.0 mi ESE 6.9 mph - N/A   Mostly Cloudy
10:54 AM 72.0 °F 66.9 °F 84% 29.92 in 6.0 mi East 8.1 mph - 0.01 in Rain Light Rain
11:54 AM 71.1 °F 66.9 °F 87% 29.92 in 8.0 mi SE 10.4 mph - 0.02 in Rain Light Rain
12:54 PM 71.1 °F 68.0 °F 90% 29.90 in 6.0 mi SE 11.5 mph - 0.18 in Rain Light Rain
1:54 PM 73.0 °F 69.1 °F 87% 29.89 in 8.0 mi SSE 9.2 mph - 0.02 in   Overcast
2:09 PM 73.0 °F 69.1 °F 87% 29.92 in 7.0 mi SSE 6.9 mph - N/A   Overcast
2:37 PM 73.0 °F 69.1 °F 87% 29.91 in 8.0 mi SE 6.9 mph - N/A   Overcast
2:54 PM 73.9 °F 69.1 °F 85% 29.88 in 8.0 mi ESE 6.9 mph - 0.00 in   Overcast
3:54 PM 73.9 °F 69.1 °F 85% 29.86 in 8.0 mi East 5.8 mph - N/A   Overcast
4:23 PM 73.9 °F 69.1 °F 85% 29.88 in 8.0 mi SE 9.2 mph - N/A   Overcast
4:54 PM 75.0 °F 69.1 °F 82% 29.85 in 8.0 mi SE 9.2 mph - N/A   Overcast
5:09 PM 75.0 °F 69.1 °F 82% 29.88 in 8.0 mi SE 8.1 mph - N/A   Overcast
5:49 PM 73.4 °F 69.8 °F 88% 29.88 in 8.0 mi SE 10.4 mph - N/A   Overcast
5:54 PM 73.9 °F 68.0 °F 82% 29.85 in 8.0 mi SE 12.7 mph - N/A   Overcast
6:07 PM 73.9 °F 68.0 °F 82% 29.88 in 8.0 mi SE 12.7 mph - N/A   Overcast
6:27 PM 73.9 °F 68.0 °F 82% 29.87 in 8.0 mi SE 9.2 mph - N/A   Overcast
6:34 PM 73.9 °F 68.0 °F 82% 29.87 in 8.0 mi SE 9.2 mph - N/A   Overcast
6:54 PM 73.9 °F 68.0 °F 82% 29.84 in 8.0 mi ESE 6.9 mph - N/A   Overcast
7:20 PM 73.9 °F 68.0 °F 82% 29.86 in 8.0 mi SE 10.4 mph - N/A   Overcast
7:54 PM 73.0 °F 68.0 °F 84% 29.83 in 8.0 mi ESE 6.9 mph - N/A   Overcast
8:54 PM 72.0 °F 68.0 °F 87% 29.83 in 9.0 mi SE 5.8 mph - N/A   Overcast
9:54 PM 71.1 °F 68.0 °F 90% 29.85 in 8.0 mi East 6.9 mph - N/A   Mostly Cloudy
10:45 PM 71.1 °F 68.0 °F 90% 29.87 in 7.0 mi ENE 4.6 mph - N/A   Overcast
10:54 PM 71.1 °F 68.0 °F 90% 29.84 in 7.0 mi East 4.6 mph - N/A   Overcast